{"data":{"norad_id":63264,"intl_designator":"2025-052BG","name":"LEMUR-2-THEFALCONER","alt_names":[],"object_type":"PAYLOAD","status":"ACTIVE","operator":null,"country":"US","launch_date":"2025-03-15","launch_site_code":"AFWTR","launch_vehicle":null,"mission":null,"orbit_class":"UNKNOWN","rcs_meters":null,"size_class":null,"mass_kg":null,"dimensions":null,"purposes":["earth_obs"],"wikipedia_slug":null,"has_3d_model":false,"image_url":null,"decayed_at":null,"tle_current":{"epoch":"2026-09-19T22:51:10.672704Z","epoch_age_seconds":61557,"freshness":"FRESH","line1":"1 63264U 25052BG  26262.95220686  .00000546  00000+0  51426-4 0  9997","line2":"2 63264  97.6711 153.7374 0002947  53.1867 306.9626 14.97804176 82870","mean_motion":14.97804176,"eccentricity":0.0002947,"inclination_deg":97.6711,"raan_deg":153.7374,"arg_perigee_deg":53.1867,"mean_anomaly_deg":306.9626,"bstar":5.1426e-5,"rev_number":8287,"period_min":96.140738761033,"perigee_km":571.63373279369,"apogee_km":575.73113516808,"semimajor_km":6951.8194339809,"source":"CELESTRAK","updated_at":"2026-09-20T09:00:34.875164Z"}}}